�������l�o���
Date,Time,MP-1(��Sv/h),MP-2(��Sv/h),MP-3(��Sv/h),MP-4(��Sv/h),MP-5(��Sv/h),MP-6(��Sv/h),MP-7(��Sv/h),MP-8(��Sv/h),����,����(m/s),���J
2018/06/14,00:00,0.863,1.229,0.848,1.549,1.070,0.470,0.825,0.785,�k,7.0,��
2018/06/14,00:10,0.865,1.228,0.846,1.549,1.070,0.471,0.824,0.787,�k�k��,4.1,��
2018/06/14,00:20,0.864,1.231,0.848,1.548,1.069,0.470,0.823,0.785,�k�k��,1.1,��
2018/06/14,00:30,0.864,1.231,0.849,1.548,1.069,0.471,0.826,0.784,�k��,1.7,��
2018/06/14,00:40,0.865,1.229,0.846,1.545,1.068,0.472,0.824,0.787,�k��,2.5,��
2018/06/14,00:50,0.866,1.229,0.846,1.546,1.067,0.469,0.823,0.787,���k��,1.2,��
2018/06/14,01:00,0.865,1.231,0.847,1.549,1.069,0.470,0.825,0.786,�k��,3.1,��
2018/06/14,01:10,0.861,1.231,0.847,1.544,1.069,0.471,0.825,0.787,�k��,3.8,��
2018/06/14,01:20,0.864,1.228,0.846,1.545,1.070,0.469,0.826,0.786,�k��,4.9,��
2018/06/14,01:30,0.863,1.230,0.846,1.547,1.071,0.471,0.825,0.787,�k��,5.0,��
2018/06/14,01:40,0.864,1.231,0.848,1.546,1.068,0.470,0.825,0.786,�k��,4.5,��
2018/06/14,01:50,0.865,1.229,0.846,1.547,1.069,0.469,0.825,0.786,�k��,5.0,��
2018/06/14,02:00,0.864,1.229,0.848,1.546,1.069,0.471,0.824,0.787,�k��,5.0,��
2018/06/14,02:10,0.863,1.228,0.848,1.548,1.070,0.470,0.823,0.787,�k��,6.4,��
2018/06/14,02:20,0.864,1.230,0.846,1.546,1.070,0.471,0.823,0.787,�k��,5.8,��
2018/06/14,02:30,0.863,1.229,0.847,1.548,1.070,0.471,0.824,0.785,�k�k��,6.1,��
2018/06/14,02:40,0.862,1.232,0.846,1.549,1.070,0.470,0.825,0.786,�k�k��,6.8,��
2018/06/14,02:50,0.864,1.231,0.846,1.551,1.071,0.470,0.825,0.788,�k�k��,6.0,��
2018/06/14,03:00,0.866,1.229,0.845,1.545,1.071,0.469,0.824,0.785,�k�k��,5.4,��
2018/06/14,03:10,0.863,1.231,0.847,1.545,1.071,0.469,0.824,0.785,�k�k��,5.9,��
2018/06/14,03:20,0.863,1.229,0.845,1.547,1.071,0.470,0.823,0.786,�k�k��,6.9,��
2018/06/14,03:30,0.861,1.230,0.846,1.547,1.070,0.468,0.823,0.788,�k�k��,6.4,��
2018/06/14,03:40,0.864,1.229,0.847,1.550,1.069,0.470,0.824,0.787,�k�k��,6.8,��
2018/06/14,03:50,0.862,1.229,0.846,1.548,1.067,0.469,0.824,0.785,�k��,6.5,��
2018/06/14,04:00,0.863,1.230,0.847,1.549,1.070,0.468,0.824,0.786,�k��,7.2,��
2018/06/14,04:10,0.863,1.227,0.849,1.547,1.069,0.470,0.825,0.787,�k��,5.5,��
2018/06/14,04:20,0.865,1.227,0.846,1.546,1.072,0.470,0.822,0.786,�k��,4.9,��
2018/06/14,04:30,0.863,1.228,0.847,1.547,1.068,0.470,0.823,0.786,�k��,4.4,��
2018/06/14,04:40,0.862,1.228,0.845,1.548,1.069,0.470,0.822,0.786,�k��,4.0,��
2018/06/14,04:50,0.862,1.229,0.845,1.546,1.069,0.470,0.821,0.786,�k��,4.1,��
2018/06/14,05:00,0.863,1.229,0.845,1.548,1.072,0.469,0.822,0.787,�k��,3.6,��
2018/06/14,05:10,0.862,1.227,0.845,1.548,1.068,0.470,0.822,0.785,�k��,3.9,��
2018/06/14,05:20,0.863,1.229,0.848,1.550,1.067,0.469,0.825,0.787,���k��,5.2,��
2018/06/14,05:30,0.864,1.229,0.847,1.545,1.072,0.470,0.824,0.786,���k��,5.8,��
2018/06/14,05:40,0.862,1.230,0.847,1.549,1.068,0.468,0.824,0.786,���k��,5.7,��
2018/06/14,05:50,0.865,1.230,0.847,1.548,1.069,0.469,0.825,0.786,�k�k��,3.8,��
2018/06/14,06:00,0.863,1.230,0.845,1.547,1.070,0.469,0.825,0.786,�k��,3.9,��
2018/06/14,06:10,0.865,1.233,0.846,1.547,1.069,0.469,0.824,0.786,�k��,4.1,��
2018/06/14,06:20,0.864,1.231,0.847,1.551,1.070,0.471,0.825,0.785,�k�k��,4.2,��
2018/06/14,06:30,0.866,1.228,0.846,1.550,1.070,0.470,0.826,0.787,�k�k��,3.4,��
2018/06/14,06:40,0.865,1.231,0.849,1.551,1.069,0.469,0.825,0.787,�k�k��,3.1,��
2018/06/14,06:50,0.861,1.229,0.845,1.549,1.070,0.471,0.826,0.787,�k�k��,3.1,��
2018/06/14,07:00,0.862,1.232,0.847,1.549,1.072,0.469,0.824,0.787,�k�k��,2.9,��
2018/06/14,07:10,0.865,1.229,0.845,1.550,1.069,0.467,0.824,0.787,�k�k��,3.1,��
2018/06/14,07:20,0.864,1.228,0.848,1.551,1.072,0.469,0.825,0.787,�k��,2.0,��
2018/06/14,07:30,0.863,1.233,0.848,1.550,1.070,0.468,0.827,0.788,�k�k��,2.6,��
2018/06/14,07:40,0.860,1.230,0.848,1.551,1.071,0.470,0.823,0.789,�k�k��,3.1,��
2018/06/14,07:50,0.863,1.228,0.847,1.550,1.071,0.468,0.821,0.787,�k,2.3,��
2018/06/14,08:00,0.859,1.227,0.849,1.553,1.073,0.468,0.823,0.788,�k��,3.5,��
2018/06/14,08:10,0.862,1.226,0.848,1.553,1.071,0.467,0.822,0.786,�k��,4.8,��
2018/06/14,08:20,0.862,1.228,0.848,1.552,1.072,0.469,0.822,0.784,�k�k��,4.0,��
2018/06/14,08:30,0.864,1.228,0.847,1.553,1.071,0.469,0.822,0.785,�k��,3.3,��
2018/06/14,08:40,0.862,1.231,0.846,1.552,1.073,0.468,0.825,0.786,���k��,5.3,��
2018/06/14,08:50,0.859,1.231,0.847,1.553,1.073,0.468,0.825,0.786,�k��,5.7,��
2018/06/14,09:00,0.860,1.230,0.847,1.555,1.073,0.469,0.825,0.786,�k��,5.9,��
2018/06/14,09:10,0.862,1.229,0.846,1.555,1.072,0.469,0.824,0.785,�k��,5.6,��
2018/06/14,09:20,0.863,1.231,0.845,1.554,1.072,0.468,0.823,0.786,�k��,5.1,��
2018/06/14,09:30,0.863,1.234,0.848,1.555,1.073,0.468,0.824,0.785,�k��,5.5,��
2018/06/14,09:40,0.863,1.234,0.848,1.553,1.073,0.469,0.825,0.786,�k��,6.4,��
2018/06/14,09:50,0.864,1.232,0.844,1.555,1.073,0.470,0.824,0.785,�k��,7.7,��
2018/06/14,10:00,0.868,1.233,0.846,1.554,1.076,0.470,0.826,0.787,�k��,6.5,��
2018/06/14,10:10,0.868,1.233,0.848,1.555,1.077,0.470,0.824,0.785,�k��,6.4,��
2018/06/14,10:20,0.865,1.233,0.848,1.554,1.076,0.469,0.827,0.787,�k��,4.6,��
2018/06/14,10:30,0.868,1.232,0.847,1.555,1.075,0.469,0.825,0.785,�k��,4.4,��
2018/06/14,10:40,0.867,1.236,0.848,1.558,1.075,0.470,0.825,0.786,�k��,4.4,��
2018/06/14,10:50,0.869,1.236,0.848,1.557,1.077,0.470,0.829,0.787,���k��,4.5,��
2018/06/14,11:00,0.869,1.235,0.850,1.556,1.076,0.470,0.825,0.786,���k��,4.1,��
2018/06/14,11:10,0.868,1.238,0.849,1.556,1.078,0.470,0.826,0.786,���k��,3.7,��
2018/06/14,11:20,0.870,1.237,0.849,1.553,1.078,0.471,0.826,0.785,���k��,3.9,��
2018/06/14,11:30,0.868,1.239,0.848,1.552,1.080,0.471,0.824,0.786,�k��,3.9,��
2018/06/14,11:40,0.870,1.242,0.849,1.553,1.079,0.473,0.827,0.787,�k��,3.7,��
2018/06/14,11:50,0.868,1.240,0.850,1.552,1.078,0.470,0.826,0.787,���k��,3.9,��
2018/06/14,12:00,0.864,1.240,0.850,1.555,1.079,0.471,0.826,0.786,��,3.9,��
2018/06/14,12:10,0.862,1.241,0.850,1.555,1.082,0.471,0.826,0.786,��,3.6,��
2018/06/14,12:20,0.870,1.239,0.850,1.555,1.079,0.471,0.826,0.788,���쓌,3.9,��
2018/06/14,12:30,0.869,1.242,0.851,1.555,1.082,0.472,0.828,0.789,�쓌,4.0,��
2018/06/14,12:40,0.870,1.240,0.854,1.557,1.083,0.472,0.825,0.788,�쓌,3.7,��
2018/06/14,12:50,0.869,1.241,0.852,1.556,1.080,0.473,0.825,0.787,��쓌,3.6,��
2018/06/14,13:00,0.867,1.241,0.850,1.558,1.083,0.472,0.825,0.788,�쓌,3.9,��
2018/06/14,13:10,0.870,1.239,0.852,1.557,1.084,0.472,0.827,0.788,���쓌,4.2,��
2018/06/14,13:20,0.873,1.243,0.851,1.556,1.085,0.473,0.828,0.788,���쓌,2.8,��
2018/06/14,13:30,0.871,1.245,0.853,1.557,1.086,0.473,0.826,0.788,�쓌,4.0,��
2018/06/14,13:40,0.870,1.243,0.850,1.558,1.084,0.472,0.827,0.790,���쓌,3.4,��
2018/06/14,13:50,0.872,1.243,0.853,1.559,1.084,0.473,0.825,0.789,���쓌,4.1,��
2018/06/14,14:00,0.872,1.243,0.852,1.558,1.086,0.472,0.826,0.788,�쓌,3.4,��
2018/06/14,14:10,0.873,1.245,0.852,1.560,1.087,0.471,0.826,0.789,���쓌,4.0,��
2018/06/14,14:20,0.872,1.246,0.854,1.558,1.088,0.473,0.827,0.788,�쓌,3.5,��
2018/06/14,14:30,0.874,1.246,0.854,1.559,1.084,0.472,0.827,0.788,��쓌,4.3,��
2018/06/14,14:40,0.873,1.244,0.853,1.557,1.085,0.473,0.826,0.789,�쓌,3.6,��
2018/06/14,14:50,0.871,1.248,0.853,1.559,1.086,0.474,0.828,0.789,���쓌,4.1,��
2018/06/14,15:00,0.872,1.245,0.854,1.561,1.088,0.473,0.827,0.787,���쓌,3.7,��
2018/06/14,15:10,0.873,1.246,0.854,1.560,1.088,0.472,0.827,0.789,��쓌,4.9,��
2018/06/14,15:20,0.872,1.249,0.855,1.559,1.088,0.474,0.826,0.789,�쓌,3.9,��
2018/06/14,15:30,0.873,1.247,0.855,1.559,1.089,0.475,0.826,0.787,�쓌,4.5,��
2018/06/14,15:40,0.872,1.249,0.856,1.561,1.088,0.474,0.827,0.788,���쓌,3.8,��
2018/06/14,15:50,0.875,1.246,0.855,1.560,1.086,0.474,0.826,0.788,���쓌,3.1,��
2018/06/14,16:00,0.874,1.247,0.853,1.561,1.091,0.474,0.827,0.789,�쓌,3.3,��
2018/06/14,16:10,0.873,1.248,0.856,1.560,1.087,0.474,0.827,0.787,��쓌,3.5,��
2018/06/14,16:20,0.872,1.247,0.855,1.561,1.091,0.474,0.827,0.788,��쓌,3.7,��
2018/06/14,16:30,0.873,1.248,0.854,1.563,1.088,0.473,0.826,0.790,��쓌,4.0,��
2018/06/14,16:40,0.875,1.246,0.857,1.561,1.088,0.474,0.827,0.787,��,3.9,��
2018/06/14,16:50,0.874,1.247,0.856,1.561,1.090,0.475,0.827,0.789,��쓌,3.8,��
2018/06/14,17:00,0.875,1.250,0.855,1.564,1.086,0.473,0.827,0.787,��쓌,4.9,��
2018/06/14,17:10,0.874,1.248,0.857,1.565,1.088,0.474,0.827,0.790,��쓌,3.9,��
2018/06/14,17:20,0.873,1.252,0.857,1.565,1.086,0.475,0.826,0.789,��쓌,3.9,��
2018/06/14,17:30,0.873,1.250,0.857,1.564,1.088,0.475,0.827,0.789,��쓌,3.8,��
2018/06/14,17:40,0.874,1.250,0.857,1.564,1.088,0.474,0.826,0.788,��,3.9,��
2018/06/14,17:50,0.873,1.252,0.857,1.564,1.089,0.475,0.829,0.788,��,3.7,��
2018/06/14,18:00,0.874,1.251,0.857,1.563,1.087,0.475,0.827,0.789,��,5.1,��
2018/06/14,18:10,0.871,1.253,0.858,1.565,1.089,0.477,0.824,0.790,��,4.5,��
2018/06/14,18:20,0.873,1.252,0.856,1.560,1.088,0.475,0.827,0.789,��,3.7,��
2018/06/14,18:30,0.874,1.253,0.857,1.562,1.089,0.475,0.826,0.792,��,4.4,��
2018/06/14,18:40,0.872,1.253,0.855,1.563,1.088,0.474,0.828,0.791,��,4.6,��
2018/06/14,18:50,0.875,1.253,0.858,1.568,1.090,0.476,0.825,0.791,��,4.0,��
2018/06/14,19:00,0.877,1.254,0.857,1.566,1.091,0.478,0.827,0.791,��,4.0,��
2018/06/14,19:10,0.876,1.255,0.857,1.566,1.090,0.477,0.826,0.790,��,4.7,��
2018/06/14,19:20,0.877,1.253,0.858,1.570,1.090,0.476,0.827,0.791,��쐼,4.3,��
2018/06/14,19:30,0.874,1.251,0.860,1.564,1.087,0.475,0.827,0.792,��쐼,4.1,��
2018/06/14,19:40,0.875,1.252,0.858,1.567,1.091,0.477,0.827,0.790,��쐼,3.7,��
2018/06/14,19:50,0.874,1.252,0.860,1.565,1.092,0.476,0.829,0.790,��쐼,3.8,��
2018/06/14,20:00,0.876,1.251,0.858,1.570,1.094,0.477,0.828,0.792,��쐼,4.7,��
2018/06/14,20:10,0.874,1.252,0.860,1.566,1.091,0.476,0.828,0.790,��쐼,5.3,��
2018/06/14,20:20,0.873,1.251,0.857,1.566,1.092,0.476,0.827,0.792,��쐼,5.4,��
2018/06/14,20:30,0.873,1.251,0.858,1.568,1.091,0.476,0.828,0.790,��쐼,4.7,��
2018/06/14,20:40,0.875,1.252,0.860,1.570,1.092,0.477,0.828,0.789,��쐼,4.6,��
2018/06/14,20:50,0.876,1.252,0.861,1.569,1.092,0.477,0.829,0.790,��쐼,5.6,��
2018/06/14,21:00,0.875,1.253,0.860,1.568,1.095,0.476,0.830,0.791,��쐼,5.8,��
2018/06/14,21:10,0.875,1.250,0.859,1.568,1.092,0.477,0.828,0.791,��쐼,4.5,��
2018/06/14,21:20,0.875,1.252,0.860,1.566,1.091,0.477,0.828,0.791,��쐼,5.6,��
2018/06/14,21:30,0.874,1.253,0.860,1.568,1.091,0.476,0.828,0.791,��쐼,4.9,��
2018/06/14,21:40,0.874,1.250,0.860,1.568,1.091,0.474,0.828,0.791,��쐼,4.7,��
2018/06/14,21:50,0.875,1.252,0.860,1.570,1.090,0.475,0.828,0.792,��쐼,4.5,��
2018/06/14,22:00,0.877,1.252,0.860,1.566,1.092,0.476,0.828,0.792,��쐼,4.3,��
2018/06/14,22:10,0.874,1.251,0.859,1.565,1.088,0.475,0.828,0.790,��쐼,4.0,��
2018/06/14,22:20,0.875,1.250,0.858,1.566,1.089,0.476,0.829,0.790,��쐼,3.8,��
2018/06/14,22:30,0.875,1.252,0.860,1.567,1.089,0.476,0.831,0.791,��쐼,3.7,��
2018/06/14,22:40,0.876,1.251,0.858,1.567,1.094,0.476,0.826,0.789,��쐼,3.9,��
2018/06/14,22:50,0.874,1.252,0.858,1.566,1.091,0.477,0.827,0.791,��쐼,3.8,��
2018/06/14,23:00,0.873,1.251,0.859,1.567,1.091,0.476,0.829,0.792,��쐼,3.3,��
2018/06/14,23:10,0.875,1.250,0.862,1.569,1.089,0.476,0.830,0.792,��쐼,3.4,��
2018/06/14,23:20,0.875,1.249,0.861,1.565,1.091,0.476,0.830,0.791,��쐼,3.6,��
2018/06/14,23:30,0.876,1.252,0.860,1.567,1.091,0.476,0.828,0.791,��쐼,3.4,��
2018/06/14,23:40,0.877,1.250,0.860,1.570,1.090,0.475,0.827,0.791,��쐼,3.1,��
2018/06/14,23:50,0.875,1.248,0.859,1.569,1.092,0.476,0.826,0.790,��쐼,3.2,��
